Weather History for Olney-Noble, IL

Change the Weather History Date:

Tuesday, August 6, 2013

  Actual Average (KEVV) Record (KEVV)
Temperature  
Mean Temperature 78 °F 77 °F  
Max Temperature 86 °F 88 °F 101 °F (1930)
Min Temperature 69 °F 67 °F 52 °F (1948)
Degree Days  
Heating Degree Days 0 0  
Month to date heating degree days 0  
Since 1 June heating degree days 6  
Since 1 July heating degree days 0  
Cooling Degree Days 12 12  
Month to date cooling degree days 75  
Year to date cooling degree days 911  
Since 1 June cooling degree days 776  
Growing Degree Days 28 (Base 50)    
Moisture  
Dew Point 71 °F    
Average Humidity 85    
Maximum Humidity 100    
Minimum Humidity 66    
Precipitation  
Precipitation 0.00 in 0.09 in 2.70 in (1998)
Month to date precipitation 0.57  
Year to date precipitation 28.51  
Snow  
Snow 0.00 in 0.00 in 0.00 in (2002)
Month to date snowfall 0.0  
Since 1 June snowfall 0.0  
Since 1 July snowfall 0.0  
Snow Depth -    
Sea Level Pressure  
Sea Level Pressure 29.91 in    
Wind  
Wind Speed 2 mph (South)    
Max Wind Speed 7 mph    
Max Gust Speed -    
Visibility 8 miles    
Events      
T = Trace of Precipitation, MM = Missing Value Source: NWS Daily Summary

Daily Weather History Graph

Daily Weather History Graph

Search for Another Location

Airport:

Trip Planner

Search our weather history database for the weather conditions in past years. The results will help you decide how hot, cold, wet, or windy it might be!

Date:

Astronomy

Aug. 06, 2013 Rise Set
Actual Time 5:58 AM CDT 7:57 PM CDT
Civil Twilight 5:29 AM CDT 8:26 PM CDT
Nautical Twilight 4:54 AM CDT 9:02 PM CDT
Astronomical Twilight 4:15 AM CDT 9:40 PM CDT
Moon 5:49 AM CDT (8/6) 7:33 PM CDT (8/6)
Length of Visible Light 14h 57m
Length of Day
13h 59m
Waning Crescent, 0% of the Moon is Illuminated
Aug 6
Waning Crescent
Aug 6
New
Aug 14
First Quarter
Aug 20
Full
Aug 28
Last Quarter

Hourly Weather History & Observations

Time (CDT) Temp. Heat Index Dew Point Humidity Pressure Visibility Wind Dir Wind Speed Gust Speed Precip Events Conditions
12:15 AM 69.8 °F - 64.4 °F 83% 29.93 in 10.0 mi SSE 3.5 mph - N/A   Overcast
12:35 AM 69.8 °F - 66.2 °F 88% 29.94 in 10.0 mi Calm Calm - N/A   Overcast
12:55 AM 69.8 °F - 66.2 °F 88% 29.94 in 10.0 mi Calm Calm - N/A   Overcast
1:15 AM 69.8 °F - 66.2 °F 88% 29.94 in 10.0 mi South 3.5 mph - N/A   Overcast
1:35 AM 69.8 °F - 66.2 °F 88% 29.94 in 10.0 mi Calm Calm - N/A   Overcast
1:55 AM 69.8 °F - 66.2 °F 88% 29.93 in 10.0 mi Calm Calm - N/A   Overcast
2:15 AM 69.8 °F - 66.2 °F 88% 29.92 in 10.0 mi Calm Calm - N/A   Overcast
2:35 AM 69.8 °F - 66.2 °F 88% 29.91 in 10.0 mi SSE 3.5 mph - N/A   Overcast
2:55 AM 69.8 °F - 66.2 °F 88% 29.89 in 10.0 mi SSE 3.5 mph - N/A   Overcast
3:15 AM 69.8 °F - 66.2 °F 88% 29.89 in 10.0 mi Calm Calm - N/A   Overcast
3:35 AM 69.8 °F - 66.2 °F 88% 29.89 in 10.0 mi Calm Calm - N/A   Overcast
3:55 AM 69.8 °F - 68.0 °F 94% 29.90 in 5.0 mi Calm Calm - N/A   Drizzle
4:15 AM 69.8 °F - 69.8 °F 100% 29.90 in 5.0 mi Calm Calm - N/A   Light Drizzle
4:35 AM 69.8 °F - 69.8 °F 100% 29.90 in 7.0 mi Calm Calm - N/A   Overcast
4:55 AM 69.8 °F - 69.8 °F 100% 29.90 in 7.0 mi Calm Calm - N/A   Overcast
5:15 AM 69.8 °F - 69.8 °F 100% 29.91 in 7.0 mi Calm Calm - N/A   Overcast
5:35 AM 69.8 °F - 69.8 °F 100% 29.91 in 7.0 mi Calm Calm - N/A   Overcast
5:55 AM 69.8 °F - 69.8 °F 100% 29.91 in 7.0 mi Calm Calm - N/A   Overcast
6:15 AM 69.8 °F - 69.8 °F 100% 29.91 in 7.0 mi Calm Calm - N/A   Overcast
6:35 AM 69.8 °F - 69.8 °F 100% 29.92 in 10.0 mi Calm Calm - N/A   Overcast
6:55 AM 69.8 °F - 69.8 °F 100% 29.93 in 10.0 mi Calm Calm - N/A   Overcast
7:15 AM 69.8 °F - 69.8 °F 100% 29.93 in 7.0 mi Calm Calm - N/A   Overcast
7:35 AM 71.6 °F - 69.8 °F 94% 29.93 in 7.0 mi SSE 3.5 mph - N/A   Overcast
7:55 AM 71.6 °F - 69.8 °F 94% 29.94 in 10.0 mi Calm Calm - N/A   Overcast
8:15 AM 73.4 °F - 69.8 °F 88% 29.93 in 7.0 mi SSE 3.5 mph - N/A   Mostly Cloudy
8:35 AM 73.4 °F - 69.8 °F 88% 29.93 in 7.0 mi South 5.8 mph - N/A   Overcast
8:55 AM 73.4 °F - 69.8 °F 88% 29.94 in 10.0 mi South 5.8 mph - N/A   Overcast
9:15 AM 73.4 °F - 69.8 °F 88% 29.94 in 7.0 mi South 3.5 mph - N/A   Overcast
9:35 AM 73.4 °F - 69.8 °F 88% 29.95 in 7.0 mi South 4.6 mph - N/A   Overcast
9:55 AM 73.4 °F - 71.6 °F 94% 29.95 in 7.0 mi South 3.5 mph - N/A   Overcast
10:15 AM 73.4 °F - 71.6 °F 94% 29.95 in 5.0 mi SSW 3.5 mph - N/A   Overcast
10:35 AM 73.4 °F - 71.6 °F 94% 29.94 in 2.0 mi SSW 3.5 mph - N/A   Overcast
10:55 AM 75.2 °F - 71.6 °F 89% 29.94 in 7.0 mi South 3.5 mph - N/A   Overcast
11:15 AM 77.0 °F - 71.6 °F 83% 29.93 in 7.0 mi South 3.5 mph - N/A   Overcast
11:35 AM 78.8 °F - 71.6 °F 78% 29.92 in 7.0 mi Calm Calm - N/A   Overcast
11:55 AM 78.8 °F - 73.4 °F 83% 29.92 in 7.0 mi Calm Calm - N/A   Overcast
12:15 PM 80.6 °F 85.4 °F 73.4 °F 79% 29.91 in 7.0 mi Calm Calm - N/A   Overcast
12:35 PM 80.6 °F 84.6 °F 71.6 °F 74% 29.91 in 5.0 mi Calm Calm - N/A   Haze
12:55 PM 82.4 °F 87.2 °F 71.6 °F 70% 29.90 in 7.0 mi Calm Calm - N/A   Scattered Clouds
1:15 PM 82.4 °F 88.2 °F 73.4 °F 74% 29.89 in 7.0 mi NNE 4.6 mph - N/A   Clear
1:35 PM 82.4 °F 88.2 °F 73.4 °F 74% 29.89 in 5.0 mi NE 3.5 mph - N/A   Haze
1:55 PM 84.2 °F 90.9 °F 73.4 °F 70% 29.89 in 7.0 mi SSE 4.6 mph - N/A   Scattered Clouds
2:15 PM 84.2 °F 90.9 °F 73.4 °F 70% 29.90 in 7.0 mi Calm Calm - N/A   Scattered Clouds
2:35 PM 84.2 °F 90.9 °F 73.4 °F 70% 29.89 in 7.0 mi Calm Calm - N/A   Clear
2:55 PM 84.2 °F 90.9 °F 73.4 °F 70% 29.89 in 10.0 mi Calm Calm - N/A   Clear
3:15 PM 86.0 °F 93.4 °F 73.4 °F 66% 29.89 in 7.0 mi Calm Calm - N/A   Clear
3:35 PM 86.0 °F 93.4 °F 73.4 °F 66% 29.89 in 10.0 mi ESE 3.5 mph - N/A   Clear
4:15 PM 84.2 °F 90.9 °F 73.4 °F 70% 29.89 in 10.0 mi Calm Calm - N/A   Mostly Cloudy
4:35 PM 84.2 °F 90.9 °F 73.4 °F 70% 29.89 in 10.0 mi SSE 6.9 mph - N/A   Mostly Cloudy
4:55 PM 86.0 °F 95.1 °F 75.2 °F 70% 29.89 in 10.0 mi South 6.9 mph - N/A   Scattered Clouds
5:15 PM 82.4 °F 89.5 °F 75.2 °F 79% 29.88 in 10.0 mi South 6.9 mph - N/A   Scattered Clouds
5:35 PM 84.2 °F 90.9 °F 73.4 °F 70% 29.88 in 10.0 mi South 6.9 mph - N/A   Scattered Clouds
5:55 PM 86.0 °F 95.1 °F 75.2 °F 70% 29.88 in 10.0 mi SSE 4.6 mph - N/A   Scattered Clouds
6:15 PM 84.2 °F 89.6 °F 71.6 °F 66% 29.88 in 10.0 mi SSW 5.8 mph - N/A   Clear
6:35 PM 84.2 °F 89.6 °F 71.6 °F 66% 29.88 in 10.0 mi South 4.6 mph - N/A   Clear
6:55 PM 82.4 °F 87.2 °F 71.6 °F 70% 29.89 in 10.0 mi South 3.5 mph - N/A   Clear
7:15 PM 82.4 °F 87.2 °F 71.6 °F 70% 29.89 in 10.0 mi Calm Calm - N/A   Clear
7:35 PM 80.6 °F 84.6 °F 71.6 °F 74% 29.89 in 10.0 mi South 3.5 mph - N/A   Clear
7:55 PM 78.8 °F - 71.6 °F 78% 29.89 in 10.0 mi South 3.5 mph - N/A   Clear
8:15 PM 78.8 °F - 71.6 °F 78% 29.89 in 10.0 mi South 4.6 mph - N/A   Clear
8:35 PM 77.0 °F - 71.6 °F 83% 29.89 in 10.0 mi South 3.5 mph - N/A   Clear
8:55 PM 77.0 °F - 71.6 °F 83% 29.90 in 10.0 mi South 3.5 mph - N/A   Clear
9:15 PM 75.2 °F - 71.6 °F 89% 29.90 in 10.0 mi South 3.5 mph - N/A   Clear
9:35 PM 75.2 °F - 71.6 °F 89% 29.91 in 10.0 mi Calm Calm - N/A   Clear
9:55 PM 75.2 °F - 71.6 °F 89% 29.92 in 10.0 mi Calm Calm - N/A   Clear
10:15 PM 75.2 °F - 71.6 °F 89% 29.92 in 10.0 mi Calm Calm - N/A   Clear
10:35 PM 73.4 °F - 71.6 °F 94% 29.92 in 10.0 mi Calm Calm - N/A   Clear
10:55 PM 73.4 °F - 71.6 °F 94% 29.92 in 10.0 mi Calm Calm - N/A   Clear
11:15 PM 73.4 °F - 71.6 °F 94% 29.92 in 10.0 mi Calm Calm - N/A   Clear
11:35 PM 73.4 °F - 71.6 °F 94% 29.92 in 10.0 mi Calm Calm - N/A   Clear
11:55 PM 71.6 °F - 71.6 °F 100% 29.91 in 10.0 mi Calm Calm - N/A   Clear